Regional Weather Roundup
Issued by NWS

Home | Current Version | Previous Version | Text Only | Print | Product List | Glossary Off
Versions: 1 2 3 4 5 6 7 8 9 10 11 12 13 14 15 16 17 18 19 20 21 22 23 24 25 26 27 28 29 30 31 32 33 34 35 36 37 38 39 40 41 42 43 44 45 46 47 48 49 50

000
ASUS43 KLSX 260359
RWRMO

WEATHER SUMMARY FOR MISSOURI
NATIONAL WEATHER SERVICE SPRINGFIELD MO
1100 PM CDT FRI JUL 25 2014

NOTE: "FAIR" INDICATES FEW OR NO CLOUDS BELOW 12,000 FEET WITH NO
       SIGNIFICANT WEATHER AND/OR OBSTRUCTIONS TO VISIBILITY.
       CURRENT SKY AND/OR WEATHER CONDITIONS ARE NOT AVAILABLE FOR
       CHILLICOTHE AND FARMINGTON.

MOZ001>031-035>038-043-044-053-054-260500-
...NORTHERN AND WESTERN MISSOURI...

CITY           SKY/WX    TMP DP  RH WIND       PRES   REMARKS
KANSAS CTY INT MOCLDY    84  73  69 SW15      29.80R HX  90
KANSAS C DTWN  PTCLDY    87  74  64 SW14G23   29.79R HX  95
LEE`S SUMMIT   PTCLDY    83  73  72 SW15      29.83R
ST JOSEPH      CLEAR     82  73  74 S8        29.77R
CHILLICOTHE      N/A     84  73  69 S9        29.80R HX  90
KIRKSVILLE     CLEAR     73  69  87 S7        29.84S

$$
MOZ066>068-077>081-088>096-101>105-260500-
...SOUTHWEST MISSOURI...

CITY           SKY/WX    TMP DP  RH WIND       PRES   REMARKS
SPRINGFIELD    CLEAR     77  70  79 S9        29.92R
JOPLIN         CLEAR     80  71  74 S14       29.91R

$$
MOZ032>034-039>042-045>050-055>058-069>072-260500-
...CENTRAL MISSOURI...

CITY           SKY/WX    TMP DP  RH WIND       PRES   REMARKS
COLUMBIA       CLEAR     78  71  79 S10       29.86S
JEFFERSON CITY CLEAR     81  70  69 SE8       29.85S
ROLLA          CLEAR     76  67  73 S16       29.89R
SEDALIA        CLEAR     81  69  67 S7        29.86R
OSAGE BEACH    CLEAR     79  70  73 S9        29.88R

$$
MOZ051-052-059>065-260500-
...EAST CENTRAL MISSOURI...

CITY           SKY/WX    TMP DP  RH WIND       PRES   REMARKS
ST LOUIS INTL  CLEAR     77  64  64 SE6       29.92S
SPIRIT OF STL  CLEAR     72  65  78 SE3       29.91R
ST CHARLES     CLEAR     68  66  93 E6        29.90S

$$
MOZ072>076-082>087-097>100-106>115-260500-
...SOUTH CENTRAL AND SOUTHEAST MISSOURI...

CITY           SKY/WX    TMP DP  RH WIND       PRES   REMARKS
CAPE GIRARDEAU CLEAR     72  64  76 S7        29.94F
FARMINGTON     CLEAR     72  63  73 S10       29.95F
POPLAR BLUFF   CLEAR     67  63  87 CALM      29.95S
WEST PLAINS    CLEAR     74  68  81 S6        29.98R

$$



USA.gov is the U.S. government's official web portal to all federal, state and local government web resources and services.